Terminal Aerodrome Forecast
Issued by NWS Charleston, WV

Current Version | Previous Version | Graphics & Text | Print | Product List | Glossary On
Versions: 1 2 3 4 5 6 7 8 9 10 11 12 13 14 15 16 17 18 19 20 21 22 23 24 25 26 27 28 29 30
000
FTUS41 KRLX 031003 AAB
TAFPKB
TAF AMD
KPKB 031003Z 0310/0406 00000KT 5SM BR OVC060
     FM031200 05003KT 6SM BR BKN070
     FM031900 08004KT 5SM SHRA VCTS BKN035CB
     FM032100 09004KT 3SM SHRA VCTS BKN030CB
     FM032300 05003KT 5SM SHRA BR OVC025
     FM040300 35003KT 6SM BR BKN020=

USA.gov is the U.S. government's official web portal to all federal, state and local government web resources and services.